GW2236 Weather Reports


time (UTC)temp
C
wind
direction
speed
KPH
gust
KPH
rain 1hr
cm
rain 24hr
cm
rain mn
cm
humidity
%
barometer
mb
20260906234240 35 131 3.2 3.2 0.00 0.00 0.00 20 1016.2
20260906233738 35 142 8.0 9.7 0.00 0.00 0.00 20 1016.3
20260906233232 35 151 4.8 4.8 0.00 0.00 0.00 20 1016.6
20260906232727 35 127 1.6 3.2 0.00 0.00 0.00 21 1016.7
20260906232222 35 171 6.4 9.7 0.00 0.00 0.00 21 1016.4
20260906231716 35 138 4.8 9.7 0.00 0.00 0.00 20 1016.6
20260906231212 35 153 3.2 3.2 0.00 0.00 0.00 20 1016.7
20260906230711 35 19 1.6 1.6 0.00 0.00 0.00 20 1016.3
20260906230206 36 136 0.0 1.6 0.00 0.00 0.00 19 1016.8
20260906225705 35 153 1.6 3.2 0.00 0.00 0.00 20 1016.6
20260906225201 36 141 1.6 3.2 0.00 0.00 0.00 21 1016.7
20260906224656 35 159 1.6 1.6 0.00 0.00 0.00 20 1016.4
20260906224152 36 121 3.2 3.2 0.00 0.00 0.00 19 1016.3
20260906223649 35 258 3.2 3.2 0.00 0.00 0.00 20 1016.4
20260906223143 36 113 11.3 12.9 0.00 0.00 0.00 19 1016.4
20260906222641 37 297 1.6 1.6 0.00 0.00 0.00 20 1016.7
20260906222140 36 185 6.4 8.0 0.00 0.00 0.00 18 1016.9
20260906221638 37 131 1.6 3.2 0.00 0.00 0.00 18 1016.7
20260906221133 36 42 0.0 1.6 0.00 0.00 0.00 20 1017.0
20260906220628 35 345 3.2 4.8 0.00 0.00 0.00 19 1016.9
20260906220124 36 263 6.4 9.7 0.00 0.00 0.00 18 1017.1
20260906215622 36 355 3.2 4.8 0.00 0.00 0.00 19 1017.0
20260906215121 36 273 8.0 14.5 0.00 0.00 0.00 18 1017.1
20260906214620 36 262 4.8 4.8 0.00 0.00 0.00 18 1017.3
20260906214115 36 264 1.6 3.2 0.00 0.00 0.00 19 1017.4
20260906213614 36 54 1.6 1.6 0.00 0.00 0.00 19 1017.5
20260906213108 35 9 1.6 1.6 0.00 0.00 0.00 18 1017.7
20260906212601 36 170 6.4 9.7 0.00 0.00 0.00 18 1017.7
20260906212057 36 167 1.6 3.2 0.00 0.00 0.00 19 1017.7
20260906211556 36 136 3.2 4.8 0.00 0.00 0.00 18 1018.0
20260906211051 35 343 1.6 3.2 0.00 0.00 0.00 17 1018.1
20260906210547 35 254 4.8 4.8 0.00 0.00 0.00 19 1018.0
20260906210042 35 352 6.4 8.0 0.00 0.00 0.00 18 1018.2
20260906205537 36 263 4.8 4.8 0.00 0.00 0.00 17 1018.2
20260906205034 35 1 1.6 1.6 0.00 0.00 0.00 17 1018.3
20260906204532 34 74 3.2 4.8 0.00 0.00 0.00 18 1018.3
20260906204026 35 119 4.8 8.0 0.00 0.00 0.00 17 1018.2
20260906203521 35 43 0.0 1.6 0.00 0.00 0.00 18 1018.3
20260906203016 34 134 1.6 1.6 0.00 0.00 0.00 18 1018.7
20260906202512 34 273 1.6 1.6 0.00 0.00 0.00 19 1018.9
20260906202007 35 178 1.6 1.6 0.00 0.00 0.00 19 1018.8
20260906201502 35 209 4.8 4.8 0.00 0.00 0.00 17 1018.8
20260906200956 35 246 4.8 8.0 0.00 0.00 0.00 18 1018.9
20260906200453 34 263 3.2 4.8 0.00 0.00 0.00 19 1019.3
20260906195952 33 75 1.6 3.2 0.00 0.00 0.00 21 1018.9
20260906195448 33 342 6.4 8.0 0.00 0.00 0.00 19 1018.9
20260906194944 34 340 3.2 4.8 0.00 0.00 0.00 18 1019.0
20260906194440 33 23 4.8 4.8 0.00 0.00 0.00 19 1019.1
20260906193935 34 12 3.2 4.8 0.00 0.00 0.00 18 1019.0
20260906193430 33 139 0.0 0.0 0.00 0.00 0.00 21 1019.1
20260906192926 33 130 0.0 1.6 0.00 0.00 0.00 20 1019.3
20260906192420 33 65 3.2 3.2 0.00 0.00 0.00 18 1019.1
20260906191919 33 36 8.0 11.3 0.00 0.00 0.00 19 1019.5
20260906191415 35 46 3.2 3.2 0.00 0.00 0.00 18 1019.4
20260906190914 33 93 1.6 3.2 0.00 0.00 0.00 21 1019.6
20260906190413 33 146 0.0 1.6 0.00 0.00 0.00 20 1019.6
20260906185908 32 38 1.6 1.6 0.00 0.00 0.00 21 1019.6
20260906185407 33 135 0.0 1.6 0.00 0.00 0.00 20 1019.8
20260906184906 34 268 1.6 1.6 0.00 0.00 0.00 20 1020.2
20260906184401 33 271 1.6 3.2 0.00 0.00 0.00 20 1020.1
20260906183857 32 58 1.6 1.6 0.00 0.00 0.00 21 1020.3
20260906183353 33 110 4.8 4.8 0.00 0.00 0.00 19 1020.3
20260906182848 33 294 1.6 1.6 0.00 0.00 0.00 21 1020.3
20260906182343 32 61 1.6 3.2 0.00 0.00 0.00 19 1020.9
20260906181838 32 72 3.2 4.8 0.00 0.00 0.00 21 1020.4
20260906181334 32 57 4.8 4.8 0.00 0.00 0.00 23 1020.5
20260906180829 32 27 1.6 3.2 0.00 0.00 0.00 23 1020.8
20260906180324 32 113 4.8 8.0 0.00 0.00 0.00 24 1020.9
20260906175821 32 147 3.2 3.2 0.00 0.00 0.00 25 1021.0
20260906175317 32 357 8.0 11.3 0.00 0.00 0.00 24 1020.8
20260906174816 32 62 1.6 3.2 0.00 0.00 0.00 25 1021.1
20260906174316 31 109 0.0 1.6 0.00 0.00 0.00 26 1020.8
20260906173810 31 69 3.2 4.8 0.00 0.00 0.00 26 1021.1
20260906173306 31 54 0.0 1.6 0.00 0.00 0.00 27 1021.1
20260906172805 31 7 3.2 3.2 0.00 0.00 0.00 26 1021.4
20260906172305 30 75 0.0 0.0 0.00 0.00 0.00 29 1021.1
20260906171756 30 93 1.6 1.6 0.00 0.00 0.00 28 1021.4
20260906171251 30 65 0.0 1.6 0.00 0.00 0.00 30 1021.5
20260906170747 30 67 4.8 9.7 0.00 0.00 0.00 27 1021.6
20260906170243 30 2 4.8 4.8 0.00 0.00 0.00 28 1021.5
20260906165738 30 47 3.2 3.2 0.00 0.00 0.00 30 1021.2
20260906165238 30 39 1.6 4.8 0.00 0.00 0.00 28 1021.8
20260906164738 28 30 4.8 8.0 0.00 0.00 0.00 29 1021.6
20260906164233 28 320 4.8 4.8 0.00 0.00 0.00 29 1021.8
20260906163729 28 11 3.2 3.2 0.00 0.00 0.00 29 1021.7
20260906163225 28 48 1.6 1.6 0.00 0.00 0.00 30 1021.6
20260906162721 28 75 6.4 8.0 0.00 0.00 0.00 30 1021.8
20260906162216 27 70 4.8 8.0 0.00 0.00 0.00 30 1021.7
20260906161711 27 48 3.2 3.2 0.00 0.00 0.00 31 1021.7
20260906161210 27 21 6.4 9.7 0.00 0.00 0.00 31 1021.8
20260906160709 26 332 4.8 4.8 0.00 0.00 0.00 32 1021.7
20260906160209 26 38 4.8 4.8 0.00 0.00 0.00 32 1021.8
20260906155706 26 21 4.8 8.0 0.00 0.00 0.00 32 1021.6
20260906155202 26 24 1.6 1.6 0.00 0.00 0.00 33 1021.7
20260906154657 26 83 1.6 3.2 0.00 0.00 0.00 33 1021.8
20260906154156 26 335 4.8 4.8 0.00 0.00 0.00 32 1021.6
20260906153655 26 354 8.0 9.7 0.00 0.00 0.00 32 1021.7
20260906153150 26 42 6.4 8.0 0.00 0.00 0.00 32 1021.7
20260906152645 25 346 6.4 8.0 0.00 0.00 0.00 32 1021.7
20260906152139 25 294 8.0 9.7 0.00 0.00 0.00 32 1021.6
20260906151634 25 42 1.6 3.2 0.00 0.00 0.00 33 1021.6
20260906151130 25 24 3.2 3.2 0.00 0.00 0.00 33 1021.6
20260906150625 25 36 0.0 0.0 0.00 0.00 0.00 36 1021.7
20260906150120 24 66 0.0 1.6 0.00 0.00 0.00 33 1021.8
20260906145619 24 93 0.0 0.0 0.00 0.00 0.00 34 1021.9
20260906145114 25 70 1.6 1.6 0.00 0.00 0.00 33 1021.7
20260906144608 25 33 0.0 0.0 0.00 0.00 0.00 35 1021.5
20260906144103 24 49 0.0 1.6 0.00 0.00 0.00 33 1021.6
20260906143558 24 30 1.6 1.6 0.00 0.00 0.00 33 1021.5
20260906143055 23 35 0.0 1.6 0.00 0.00 0.00 33 1021.8
20260906142553 24 34 0.0 0.0 0.00 0.00 0.00 34 1021.6
20260906142049 24 75 0.0 1.6 0.00 0.00 0.00 35 1021.6
20260906141548 24 77 0.0 0.0 0.00 0.00 0.00 34 1021.5
20260906141044 22 43 0.0 0.0 0.00 0.00 0.00 35 1021.4
20260906140543 22 55 0.0 1.6 0.00 0.00 0.00 36 1021.2
20260906140037 22 86 1.6 1.6 0.00 0.00 0.00 36 1021.5
20260906135534 23 47 1.6 3.2 0.00 0.00 0.00 32 1021.4
20260906135030 22 66 1.6 3.2 0.00 0.00 0.00 33 1021.1
20260906134525 23 77 1.6 3.2 0.00 0.00 0.00 31 1021.2
20260906134020 23 37 1.6 3.2 0.00 0.00 0.00 31 1021.0
20260906133516 24 38 3.2 3.2 0.00 0.00 0.00 29 1021.1
20260906133011 24 321 8.0 9.7 0.00 0.00 0.00 29 1021.0
20260906132506 24 281 4.8 4.8 0.00 0.00 0.00 29 1020.7
20260906132002 23 256 3.2 4.8 0.00 0.00 0.00 30 1020.7
20260906131457 22 14 4.8 4.8 0.00 0.00 0.00 30 1020.9
20260906130952 22 5 4.8 4.8 0.00 0.00 0.00 30 1021.1
20260906130451 22 18 4.8 4.8 0.00 0.00 0.00 31 1020.8
20260906125946 22 15 4.8 4.8 0.00 0.00 0.00 31 1020.7
20260906125444 22 88 1.6 3.2 0.00 0.00 0.00 31 1020.5
20260906124943 22 356 3.2 4.8 0.00 0.00 0.00 31 1020.8
20260906124439 22 22 3.2 3.2 0.00 0.00 0.00 31 1020.8
20260906123939 22 321 4.8 8.0 0.00 0.00 0.00 31 1020.9
20260906123433 22 11 1.6 1.6 0.00 0.00 0.00 32 1020.7
20260906122933 21 298 3.2 4.8 0.00 0.00 0.00 34 1020.8
20260906122428 21 309 4.8 4.8 0.00 0.00 0.00 35 1021.0
20260906121925 21 309 1.6 1.6 0.00 0.00 0.00 37 1020.7
20260906121421 20 292 3.2 3.2 0.00 0.00 0.00 37 1020.7
20260906120917 21 340 0.0 1.6 0.00 0.00 0.00 37 1020.4
20260906120412 21 13 0.0 0.0 0.00 0.00 0.00 37 1020.7
20260906115908 21 337 0.0 0.0 0.00 0.00 0.00 38 1020.4
20260906115404 21 300 0.0 1.6 0.00 0.00 0.00 37 1020.7
20260906114903 21 340 1.6 1.6 0.00 0.00 0.00 36 1020.7
20260906114358 21 325 1.6 1.6 0.00 0.00 0.00 37 1020.4
20260906113854 21 317 0.0 0.0 0.00 0.00 0.00 37 1020.9
20260906113352 21 76 0.0 0.0 0.00 0.00 0.00 37 1020.7
20260906112848 21 12 0.0 0.0 0.00 0.00 0.00 37 1020.8
20260906112343 22 4 0.0 0.0 0.00 0.00 0.00 36 1020.8
20260906111837 22 309 1.6 1.6 0.00 0.00 0.00 36 1020.4
20260906111332 22 314 0.0 0.0 0.00 0.00 0.00 37 1020.3
20260906110827 22 275 0.0 0.0 0.00 0.00 0.00 38 1020.7
20260906110323 22 63 0.0 0.0 0.00 0.00 0.00 36 1020.7
20260906105821 22 85 0.0 0.0 0.00 0.00 0.00 35 1020.5
20260906105317 23 80 0.0 0.0 0.00 0.00 0.00 34 1020.7
20260906104813 23 67 0.0 0.0 0.00 0.00 0.00 34 1020.5
20260906104311 23 31 1.6 1.6 0.00 0.00 0.00 33 1020.9
20260906103809 23 60 3.2 4.8 0.00 0.00 0.00 33 1020.4
20260906103303 23 341 4.8 4.8 0.00 0.00 0.00 33 1020.4
20260906102759 23 36 4.8 4.8 0.00 0.00 0.00 33 1020.5
20260906102258 23 111 0.0 0.0 0.00 0.00 0.00 33 1020.2
20260906101754 23 34 1.6 3.2 0.00 0.00 0.00 32 1020.3
20260906101248 23 138 0.0 1.6 0.00 0.00 0.00 33 1020.5
20260906100743 23 320 4.8 9.7 0.00 0.00 0.00 33 1020.4
20260906100243 23 291 4.8 4.8 0.00 0.00 0.00 33 1020.2
20260906095738 23 271 4.8 4.8 0.00 0.00 0.00 34 1020.4
20260906095233 23 324 3.2 3.2 0.00 0.00 0.00 34 1020.3
20260906094732 23 266 1.6 1.6 0.00 0.00 0.00 34 1020.2
20260906094222 23 270 4.8 4.8 0.00 0.00 0.00 34 1020.4
20260906093719 23 234 3.2 3.2 0.00 0.00 0.00 34 1020.3
20260906093214 23 292 1.6 3.2 0.00 0.00 0.00 33 1020.3
20260906092708 23 280 4.8 4.8 0.00 0.00 0.00 33 1020.2
20260906092202 23 296 3.2 3.2 0.00 0.00 0.00 33 1019.8
20260906091659 23 286 4.8 4.8 0.00 0.00 0.00 33 1020.0
20260906091155 23 299 4.8 8.0 0.00 0.00 0.00 33 1019.8
20260906090651 24 277 3.2 3.2 0.00 0.00 0.00 33 1020.2
20260906090149 24 268 4.8 4.8 0.00 0.00 0.00 32 1020.1
20260906085648 25 282 4.8 8.0 0.00 0.00 0.00 31 1019.8
20260906085143 25 341 4.8 4.8 0.00 0.00 0.00 31 1020.0
20260906084637 25 309 3.2 3.2 0.00 0.00 0.00 31 1019.8
20260906084136 25 333 4.8 4.8 0.00 0.00 0.00 31 1020.2
20260906083632 25 306 3.2 3.2 0.00 0.00 0.00 31 1019.7
20260906083127 25 321 4.8 4.8 0.00 0.00 0.00 31 1020.0
20260906082623 25 320 1.6 1.6 0.00 0.00 0.00 32 1020.2
20260906082118 25 303 1.6 3.2 0.00 0.00 0.00 32 1020.2
20260906081614 25 316 3.2 3.2 0.00 0.00 0.00 31 1020.2
20260906081109 25 319 6.4 8.0 0.00 0.00 0.00 31 1020.4
20260906080605 25 308 1.6 1.6 0.00 0.00 0.00 31 1020.3
20260906075555 25 269 3.2 3.2 0.00 0.00 0.00 32 1020.2
20260906075050 25 348 3.2 3.2 0.00 0.00 0.00 32 1020.3
20260906074545 24 298 3.2 3.2 0.00 0.00 0.00 33 1020.4
20260906074043 23 289 1.6 3.2 0.00 0.00 0.00 33 1020.5
20260906073538 23 266 3.2 4.8 0.00 0.00 0.00 33 1020.5
20260906073035 23 277 1.6 3.2 0.00 0.00 0.00 34 1020.8
20260906072529 23 282 1.6 3.2 0.00 0.00 0.00 34 1020.8
20260906072025 23 305 1.6 1.6 0.00 0.00 0.00 34 1020.4
20260906071521 23 321 0.0 1.6 0.00 0.00 0.00 34 1020.4
20260906071016 23 225 1.6 1.6 0.00 0.00 0.00 34 1020.5
20260906070513 23 213 0.0 1.6 0.00 0.00 0.00 34 1020.3
20260906070008 23 337 0.0 0.0 0.00 0.00 0.00 33 1020.5
20260906065502 24 284 1.6 1.6 0.00 0.00 0.00 33 1020.5
20260906064957 24 342 1.6 1.6 0.00 0.00 0.00 33 1020.5
20260906064453 24 309 4.8 4.8 0.00 0.00 0.00 33 1020.7
20260906063948 24 275 1.6 1.6 0.00 0.00 0.00 33 1020.8
20260906063443 25 108 0.0 0.0 0.00 0.00 0.00 34 1020.9
20260906062938 25 79 0.0 0.0 0.00 0.00 0.00 32 1020.4
20260906062433 25 47 1.6 1.6 0.00 0.00 0.00 31 1020.4
20260906061928 25 280 1.6 3.2 0.00 0.00 0.00 31 1020.5
20260906061424 25 129 0.0 1.6 0.00 0.00 0.00 32 1020.4
20260906060918 25 71 3.2 3.2 0.00 0.00 0.00 31 1020.4
20260906060415 25 93 3.2 3.2 0.00 0.00 0.00 31 1020.2
20260906055911 25 228 1.6 1.6 0.00 0.00 0.00 32 1020.4
20260906055407 25 155 6.4 8.0 0.00 0.00 0.00 32 1020.4
20260906054902 25 302 0.0 0.0 0.00 0.00 0.00 32 1020.4
20260906054357 25 75 0.0 1.6 0.00 0.00 0.00 32 1020.3
20260906053853 26 139 3.2 3.2 0.00 0.00 0.00 31 1019.8
20260906053349 26 114 1.6 1.6 0.00 0.00 0.00 30 1020.1
20260906052844 26 138 3.2 3.2 0.00 0.00 0.00 31 1020.2
20260906052341 26 252 1.6 1.6 0.00 0.00 0.00 30 1020.0
20260906051837 26 254 1.6 1.6 0.00 0.00 0.00 29 1019.8
20260906051337 27 223 0.0 1.6 0.00 0.00 0.00 29 1020.1
20260906050833 27 18 4.8 8.0 0.00 0.00 0.00 28 1020.1
20260906050327 27 260 8.0 12.9 0.00 0.00 0.00 28 1019.8
20260906045826 27 249 8.0 9.7 0.00 0.00 0.00 29 1020.0
20260906045321 27 248 9.7 12.9 0.00 0.00 0.00 29 1019.5
20260906044817 27 302 4.8 11.3 0.00 0.00 0.00 29 1019.6
20260906044311 27 262 8.0 12.9 0.00 0.00 0.00 29 1019.5
20260906043807 27 286 8.0 12.9 0.00 0.00 0.00 29 1019.5
20260906043303 27 256 4.8 4.8 0.00 0.00 0.00 29 1019.7
20260906042757 26 323 3.2 4.8 0.00 0.00 0.00 30 1019.6
20260906042256 27 320 3.2 3.2 0.00 0.00 0.00 30 1019.6
20260906041752 27 277 4.8 9.7 0.00 0.00 0.00 29 1019.6
20260906041247 27 261 4.8 4.8 0.00 0.00 0.00 29 1019.4
20260906040742 27 168 9.7 14.5 0.00 0.00 0.00 29 1019.7
20260906040237 27 247 3.2 4.8 0.00 0.00 0.00 29 1019.7
20260906035733 28 277 4.8 8.0 0.00 0.00 0.00 28 1019.7
20260906035229 28 291 8.0 12.9 0.00 0.00 0.00 28 1019.6
20260906034728 27 241 8.0 11.3 0.00 0.00 0.00 28 1019.7
20260906034223 27 299 8.0 9.7 0.00 0.00 0.00 28 1019.8
20260906033719 27 327 4.8 8.0 0.00 0.00 0.00 28 1019.7
20260906033218 28 310 4.8 8.0 0.00 0.00 0.00 28 1019.6
20260906032716 28 322 4.8 8.0 0.00 0.00 0.00 28 1019.7
20260906032215 28 301 8.0 9.7 0.00 0.00 0.00 28 1019.5
20260906031710 28 341 4.8 8.0 0.00 0.00 0.00 28 1019.4
20260906031206 28 305 6.4 9.7 0.00 0.00 0.00 28 1019.4
20260906030705 28 318 4.8 11.3 0.00 0.00 0.00 28 1019.1
20260906030200 28 230 8.0 11.3 0.00 0.00 0.00 28 1019.1
20260906025700 28 307 8.0 14.5 0.00 0.00 0.00 28 1018.9
20260906025154 28 314 8.0 11.3 0.00 0.00 0.00 28 1019.1
20260906024648 28 275 8.0 12.9 0.00 0.00 0.00 28 1018.6
20260906024147 28 319 8.0 11.3 0.00 0.00 0.00 28 1019.1
20260906023644 28 291 4.8 4.8 0.00 0.00 0.00 28 1019.0
20260906023143 28 289 4.8 8.0 0.00 0.00 0.00 28 1019.0
20260906022638 28 270 8.0 11.3 0.00 0.00 0.00 28 1018.9
20260906022134 28 319 4.8 8.0 0.00 0.00 0.00 30 1018.4
20260906021630 28 345 1.6 1.6 0.00 0.00 0.00 31 1018.7
20260906021128 28 293 1.6 1.6 0.00 0.00 0.00 32 1018.8
20260906020623 28 0 0.0 0.0 0.00 0.00 0.00 31 1018.4
20260906020118 28 301 0.0 1.6 0.00 0.00 0.00 31 1018.8
20260906015612 29 13 0.0 0.0 0.00 0.00 0.00 31 1018.4
20260906015111 29 330 0.0 0.0 0.00 0.00 0.00 31 1018.2
20260906014606 30 274 0.0 0.0 0.00 0.00 0.00 30 1018.6
20260906014102 30 255 0.0 0.0 0.00 0.00 0.00 30 1018.3
20260906013557 30 262 0.0 1.6 0.00 0.00 0.00 30 1018.4
20260906013053 30 237 1.6 1.6 0.00 0.00 0.00 29 1018.4
20260906012548 30 267 1.6 1.6 0.00 0.00 0.00 29 1018.4
20260906012047 30 294 1.6 3.2 0.00 0.00 0.00 29 1018.6
20260906011544 30 278 1.6 1.6 0.00 0.00 0.00 29 1018.6
20260906011043 30 233 1.6 1.6 0.00 0.00 0.00 29 1018.7
20260906010538 31 286 3.2 3.2 0.00 0.00 0.00 28 1018.2
20260906010035 31 273 3.2 3.2 0.00 0.00 0.00 28 1018.6
20260906005534 31 276 3.2 3.2 0.00 0.00 0.00 27 1018.4
20260906005032 31 248 1.6 1.6 0.00 0.00 0.00 27 1018.4
20260906004526 31 357 3.2 3.2 0.00 0.00 0.00 27 1018.2
20260906004021 31 341 6.4 8.0 0.00 0.00 0.00 27 1018.6
20260906003516 31 8 4.8 8.0 0.00 0.00 0.00 27 1018.4
20260906003012 32 298 1.6 1.6 0.00 0.00 0.00 26 1018.4
20260906002507 32 38 1.6 3.2 0.00 0.00 0.00 26 1018.6
20260906002002 32 67 0.0 0.0 0.00 0.00 0.00 26 1018.6
20260906001457 32 339 3.2 4.8 0.00 0.00 0.00 26 1018.3
20260906000952 32 196 3.2 3.2 0.00 0.00 0.00 26 1018.4
20260906000448 33 282 1.6 1.6 0.00 0.00 0.00 26 1018.6
20260905235942 33 338 3.2 4.8 0.00 0.00 0.00 25 1018.8
20260905235442 33 230 3.2 4.8 0.00 0.00 0.00 25 1018.4
20260905234937 33 240 1.6 1.6 0.00 0.00 0.00 26 1018.4